This is the latest recevied weather packets stored in our database for station/object K7AEL. If no packets are shown the sender has not sent any weather packets the latest 10 day(s).
| Time | Temp. | Humidity | Pressure | Rain* | Wind** | Luminosity | Snow |
|---|---|---|---|---|---|---|---|
| 1777935566 | 24.44° C | 34% | 1015 hPa | 0 mm | - | 86 W/m² | - |
| 1777935262 | 25° C | 27% | 1014.3 hPa | 0 mm | - | 78 W/m² | - |
| 1777934960 | 25.56° C | 27% | 1014.2 hPa | 0 mm | - | 57 W/m² | - |
| 1777934656 | 25.56° C | 24% | 1014.1 hPa | 0 mm | - | 65 W/m² | - |
| 1777934353 | 26.11° C | 23% | 1014.1 hPa | 0 mm | - | 83 W/m² | - |
| 1777934049 | 26.11° C | 22% | 1014.1 hPa | 0 mm | - | 78 W/m² | - |
| 1777933745 | 26.11° C | 22% | 1014.1 hPa | 0 mm | - | 66 W/m² | - |
| 1777933442 | 26.11° C | 22% | 1014 hPa | 0 mm | - | 71 W/m² | - |
| 1777933141 | 26.67° C | 22% | 1014.1 hPa | 0 mm | - | 82 W/m² | - |
| 1777932837 | 26.67° C | 22% | 1014.2 hPa | 0 mm | - | 101 W/m² | - |
| 1777932534 | 26.67° C | 22% | 1014.2 hPa | 0 mm | - | 117 W/m² | - |
| 1777932231 | 26.67° C | 22% | 1014.2 hPa | 0 mm | - | 144 W/m² | - |
| 1777931928 | 26.67° C | 22% | 1014.2 hPa | 0 mm | - | 109 W/m² | - |
| 1777931624 | 26.67° C | 21% | 1014.4 hPa | 0 mm | - | 110 W/m² | - |
| 1777931321 | 27.22° C | 21% | 1014.3 hPa | 0 mm | - | 147 W/m² | - |
| 1777931018 | 27.22° C | 21% | 1014.2 hPa | 0 mm | - | 216 W/m² | - |
| 1777930714 | 27.78° C | 20% | 1014.2 hPa | 0 mm | - | 244 W/m² | - |
| 1777930410 | 27.78° C | 20% | 1014.2 hPa | 0 mm | - | 350 W/m² | - |
| 1777930108 | 27.78° C | 19% | 1014 hPa | 0 mm | - | 321 W/m² | - |
| 1777929803 | 28.33° C | 19% | 1014 hPa | 0 mm | - | 287 W/m² | - |
| 1777929502 | 27.78° C | 20% | 1014.1 hPa | 0 mm | - | 303 W/m² | - |
| 1777929197 | 27.78° C | 20% | 1014.2 hPa | 0 mm | - | 314 W/m² | - |
| 1777928895 | 27.22° C | 20% | 1014 hPa | 0 mm | - | 263 W/m² | - |
| 1777928592 | 27.22° C | 20% | 1013.8 hPa | 0 mm | - | 219 W/m² | - |
| 1777928289 | 27.22° C | 21% | 1014 hPa | 0 mm | - | 162 W/m² | - |
* Rain latest hour (hover to see other rain measurements)
** Current wind speed in m/s (hover to see current wind gust speed)